PHWVO EHEH-EHRD

Flight info

Callsign PHWVO
Flight time N/A
Altitude 1000
Route EHEH/03 TRAFFIC PATTERN
Aircraft C172/L-SFG/C

Departure

Time 2026-04-30 18:10
Airport Eindhoven Airport (EHEH)

Arrival

Time N/A
Airport Rotterdam The Hague Airport (EHRD)
Time Latitude Longitude Altitude Speed Heading
2026-04-30 18:06 51.44091 5.34783 636 ft 82 kts 192°
2026-04-30 18:07 51.44427 5.36790 79 ft 50 kts 37°
2026-04-30 18:08 51.45396 5.37861 215 ft 76 kts 44°
2026-04-30 18:09 51.46274 5.37007 622 ft 79 kts 205°
2026-04-30 18:10 51.44234 5.34869 694 ft 105 kts 212°
2026-04-30 18:11 51.44249 5.33314 940 ft 98 kts 228°
2026-04-30 18:11 51.44473 5.32602 1035 ft 91 kts 163°
2026-04-30 18:12 51.42737 5.31114 1369 ft 88 kts 199°
2026-04-30 18:13 51.41796 5.30080 1494 ft 84 kts 188°
2026-04-30 18:13 51.40859 5.30248 1158 ft 68 kts 74°
2026-04-30 18:14 51.41211 5.31748 990 ft 64 kts 81°
2026-04-30 18:15 51.41948 5.33889 718 ft 78 kts 60°
2026-04-30 18:15 51.43014 5.35106 402 ft 51 kts 49°
2026-04-30 18:16 51.43730 5.35981 235 ft 68 kts 46°
2026-04-30 18:16 51.44384 5.36735 81 ft 52 kts 43°
2026-04-30 18:17 51.44701 5.37093 176 ft 54 kts 41°
2026-04-30 18:17 51.45059 5.37493 249 ft 73 kts 44°
2026-04-30 18:17 51.45976 5.38464 502 ft 94 kts 33°
2026-04-30 18:18 51.46573 5.38297 683 ft 98 kts 309°
2026-04-30 18:18 51.46684 5.37286 709 ft 90 kts 215°
2026-04-30 18:18 51.46209 5.36760 782 ft 81 kts 195°